EW1600 Weather Reports


time (UTC)temp
C
wind
direction
speed
KPH
gust
KPH
rain 1hr
cm
rain 24hr
cm
rain mn
cm
humidity
%
barometer
mb
20260507142004 11 282 4.8 11.3 0.00 0.43 0.36 44 1018.8
20260507141504 10 207 3.2 14.5 0.00 0.43 0.36 42 1018.7
20260507141004 10 269 3.2 11.3 0.00 0.43 0.36 44 1018.8
20260507140003 10 245 4.8 11.3 0.00 0.43 0.36 45 1018.8
20260507135504 10 245 3.2 12.9 0.00 0.43 0.36 44 1018.7
20260507135003 10 253 4.8 12.9 0.00 0.43 0.36 44 1018.8
20260507134504 10 274 4.8 12.9 0.00 0.43 0.36 47 1018.8
20260507134004 9 268 4.8 14.5 0.00 0.43 0.36 50 1018.8
20260507133504 8 273 4.8 11.3 0.00 0.43 0.36 47 1018.8
20260507133004 10 154 4.8 12.9 0.00 0.43 0.36 45 1018.9
20260507132004 9 252 3.2 12.9 0.00 0.43 0.36 50 1018.9
20260507131503 9 161 1.6 4.8 0.00 0.43 0.36 49 1018.9
20260507130503 10 278 1.6 12.9 0.00 0.43 0.36 46 1018.9
20260507130004 11 129 3.2 19.3 0.00 0.43 0.36 46 1019.0
20260507125504 10 185 4.8 14.5 0.00 0.43 0.36 46 1018.9
20260507125004 10 152 4.8 12.9 0.00 0.43 0.36 47 1018.9
20260507124504 10 286 3.2 12.9 0.00 0.43 0.36 48 1018.9
20260507124004 11 271 3.2 9.7 0.00 0.43 0.36 46 1018.9
20260507122504 8 273 1.6 4.8 0.00 0.43 0.36 49 1018.9
20260507122004 8 254 3.2 11.3 0.00 0.43 0.36 54 1018.9
20260507121504 8 159 1.6 8.0 0.00 0.43 0.36 51 1018.9
20260507121004 8 353 1.6 4.8 0.00 0.43 0.36 50 1018.9
20260507120503 8 271 3.2 9.7 0.00 0.43 0.36 53 1018.9
20260507120004 8 186 3.2 12.9 0.00 0.43 0.36 52 1018.9
20260507115504 8 203 4.8 14.5 0.00 0.43 0.36 52 1018.9
20260507115004 8 150 4.8 14.5 0.00 0.43 0.36 53 1018.9
20260507114504 10 144 3.2 4.8 0.00 0.43 0.36 50 1018.8
20260507114004 8 247 3.2 19.3 0.00 0.43 0.36 54 1018.8
20260507113504 8 170 6.4 16.1 0.00 0.43 0.36 55 1018.9
20260507113004 8 166 4.8 14.5 0.00 0.43 0.36 54 1018.8
20260507112503 8 208 4.8 16.1 0.00 0.43 0.36 52 1018.8
20260507112004 9 155 3.2 12.9 0.00 0.43 0.36 50 1018.8
20260507111506 9 167 1.6 4.8 0.00 0.43 0.36 51 1018.9
20260507111004 9 273 3.2 8.0 0.00 0.43 0.36 51 1018.9
20260507110504 9 277 3.2 12.9 0.00 0.43 0.36 53 1018.8
20260507110004 8 163 4.8 11.3 0.00 0.43 0.36 54 1018.8
20260507105504 8 152 4.8 11.3 0.00 0.43 0.36 51 1018.8
20260507105004 10 253 6.4 12.9 0.00 0.43 0.36 50 1018.7
20260507104504 11 285 8.0 14.5 0.00 0.43 0.36 50 1018.7
20260507104004 10 286 4.8 12.9 0.00 0.43 0.36 51 1018.6
20260507103504 9 288 3.2 12.9 0.00 0.43 0.36 59 1018.5
20260507102503 9 255 6.4 14.5 0.00 0.43 0.36 52 1018.5
20260507102006 10 259 3.2 14.5 0.00 0.43 0.36 53 1018.6
20260507101504 9 270 4.8 12.9 0.00 0.43 0.36 54 1018.5
20260507101004 8 249 4.8 16.1 0.00 0.43 0.36 57 1018.6
20260507100004 8 180 3.2 12.9 0.00 0.43 0.36 56 1018.5
20260507095504 8 202 3.2 9.7 0.00 0.43 0.36 56 1018.4
20260507095004 8 175 4.8 14.5 0.00 0.43 0.36 55 1018.4
20260507094003 8 151 8.0 19.3 0.00 0.43 0.36 58 1018.4
20260507093504 8 259 6.4 16.1 0.00 0.43 0.36 55 1018.4
20260507093004 8 149 1.6 11.3 0.00 0.43 0.36 60 1018.4
20260507092504 8 138 4.8 16.1 0.00 0.43 0.36 58 1018.4
20260507092004 8 247 4.8 12.9 0.00 0.43 0.36 60 1018.4
20260507091503 7 257 3.2 16.1 0.00 0.43 0.36 66 1018.3
20260507091004 7 133 4.8 12.9 0.00 0.43 0.36 63 1018.3
20260507090503 7 228 3.2 14.5 0.00 0.43 0.36 62 1018.3
20260507090004 7 177 3.2 11.3 0.00 0.46 0.36 66 1018.2
20260507085503 6 155 4.8 9.7 0.00 0.46 0.36 65 1018.2
20260507085003 7 184 3.2 8.0 0.00 0.46 0.36 66 1018.1
20260507084503 7 174 1.6 8.0 0.00 0.48 0.36 64 1018.2
20260507083504 6 175 3.2 12.9 0.00 0.51 0.36 66 1018.0
20260507082504 6 209 3.2 4.8 0.00 0.53 0.36 67 1018.0
20260507082004 6 152 3.2 12.9 0.00 0.53 0.36 67 1018.0
20260507081504 6 150 4.8 11.3 0.00 0.53 0.36 67 1017.9
20260507081004 6 210 3.2 14.5 0.00 0.53 0.36 67 1017.8
20260507080504 6 250 4.8 11.3 0.00 0.53 0.36 66 1017.8
20260507075004 6 207 1.6 14.5 0.00 0.53 0.36 69 1017.6
20260507074503 6 253 3.2 8.0 0.00 0.53 0.36 70 1017.6
20260507074003 5 229 3.2 9.7 0.00 0.53 0.36 69 1017.5
20260507073503 5 183 3.2 4.8 0.00 0.53 0.36 71 1017.5
20260507073004 5 205 1.6 4.8 0.00 0.53 0.36 72 1017.5
20260507072504 5 250 3.2 11.3 0.00 0.53 0.36 70 1017.5
20260507072004 5 296 3.2 9.7 0.00 0.56 0.36 71 1017.4
20260507071504 5 279 6.4 11.3 0.00 0.56 0.36 71 1017.4
20260507071004 4 277 1.6 9.7 0.00 0.56 0.36 72 1017.3
20260507070504 4 205 3.2 4.8 0.00 0.58 0.36 73 1017.3
20260507070009 4 167 1.6 4.8 0.00 0.58 0.36 73 1017.2
20260507065504 4 197 3.2 4.8 0.00 0.58 0.36 73 1017.2
20260507065004 4 205 3.2 12.9 0.00 0.61 0.36 74 1017.2
20260507064503 3 187 3.2 4.8 0.00 0.61 0.36 75 1017.2
20260507064004 3 166 1.6 8.0 0.00 0.61 0.36 76 1017.1
20260507063504 3 192 3.2 8.0 0.00 0.61 0.36 77 1017.1
20260507063004 3 189 1.6 4.8 0.00 0.61 0.36 77 1017.1
20260507062003 3 280 3.2 11.3 0.00 0.61 0.36 79 1017.2
20260507061503 3 275 3.2 11.3 0.00 0.64 0.36 80 1017.2
20260507061003 3 203 3.2 8.0 0.00 0.64 0.36 81 1017.2
20260507060504 3 139 1.6 8.0 0.00 0.66 0.36 82 1017.1
20260507060003 2 229 1.6 8.0 0.00 0.66 0.36 83 1017.1
20260507055004 2 193 1.6 3.2 0.00 0.69 0.36 85 1016.9
20260507054004 2 125 1.6 12.9 0.00 0.71 0.36 86 1016.9
20260507053504 2 248 3.2 9.7 0.00 0.71 0.36 85 1016.9
20260507053004 2 234 3.2 12.9 0.00 0.71 0.36 85 1016.8
20260507052003 2 205 1.6 9.7 0.00 0.71 0.36 85 1016.7
20260507051503 2 267 3.2 11.3 0.00 0.71 0.36 84 1016.8
20260507051003 2 161 3.2 12.9 0.00 0.71 0.36 84 1016.7
20260507050504 2 176 3.2 14.5 0.00 0.74 0.36 84 1016.6
20260507050004 2 203 4.8 12.9 0.00 0.74 0.36 84 1016.6
20260507045504 2 156 3.2 9.7 0.00 0.76 0.36 85 1016.5
20260507045003 2 252 3.2 12.9 0.00 0.76 0.36 85 1016.5
20260507044504 2 291 3.2 12.9 0.00 0.79 0.36 85 1016.4
20260507043004 2 163 1.6 14.5 0.00 0.79 0.36 83 1016.5
20260507042503 2 152 6.4 16.1 0.00 0.79 0.36 83 1016.4
20260507042004 2 243 3.2 11.3 0.00 0.79 0.36 83 1016.3
20260507041004 2 263 4.8 11.3 0.00 0.79 0.36 83 1016.2
20260507040004 2 205 1.6 4.8 0.00 0.79 0.36 83 1016.1
20260507035504 2 223 1.6 8.0 0.00 0.81 0.36 84 1016.1
20260507035004 2 259 3.2 4.8 0.00 0.81 0.36 84 1016.1
20260507034504 2 228 1.6 4.8 0.00 0.81 0.36 83 1016.0
20260507034004 2 160 3.2 11.3 0.00 0.84 0.36 84 1016.1
20260507033504 2 174 1.6 8.0 0.00 0.84 0.36 83 1016.1
20260507033004 2 256 3.2 11.3 0.00 0.84 0.36 83 1016.2
20260507032003 2 168 1.6 4.8 0.00 0.84 0.36 83 1016.1
20260507031003 2 251 3.2 9.7 0.00 0.84 0.36 84 1016.0
20260507030504 2 275 3.2 12.9 0.00 0.84 0.36 84 1015.9
20260507030004 2 271 3.2 4.8 0.00 0.84 0.36 83 1015.8
20260507025504 2 290 4.8 9.7 0.00 0.84 0.36 83 1015.7
20260507025004 2 170 1.6 9.7 0.00 0.84 0.36 83 1015.6
20260507024504 2 185 3.2 12.9 0.03 0.84 0.36 84 1015.6
20260507024004 2 228 4.8 9.7 0.03 0.84 0.36 84 1015.6
20260507023504 2 192 3.2 12.9 0.03 0.84 0.36 85 1015.5
20260507023004 2 257 3.2 11.3 0.03 0.84 0.36 85 1015.6
20260507022504 2 234 3.2 8.0 0.03 0.84 0.36 85 1015.6
20260507022004 2 254 3.2 11.3 0.03 0.84 0.36 85 1015.6
20260507021504 2 324 1.6 8.0 0.03 0.84 0.36 85 1015.6
20260507021004 2 240 3.2 9.7 0.03 0.84 0.36 85 1015.5
20260507020504 2 282 3.2 4.8 0.03 0.84 0.36 85 1015.5
20260507015504 2 164 4.8 11.3 0.03 0.84 0.36 86 1015.4
20260507015004 2 256 1.6 11.3 0.03 0.84 0.36 86 1015.4
20260507014504 2 268 3.2 9.7 0.00 0.81 0.33 86 1015.4
20260507014004 2 245 4.8 16.1 0.00 0.81 0.33 86 1015.4
20260507013504 2 241 3.2 12.9 0.00 0.81 0.33 87 1015.3
20260507013004 2 209 8.0 19.3 0.00 0.81 0.33 87 1015.3
20260507012504 2 250 3.2 8.0 0.00 0.81 0.33 87 1015.3
20260507010504 2 71 0.0 8.0 0.05 0.81 0.33 88 1015.2
20260507010004 1 183 3.2 8.0 0.05 0.81 0.33 89 1015.2
20260507005504 1 300 3.2 4.8 0.05 0.81 0.33 88 1015.1
20260507005004 1 337 3.2 4.8 0.05 0.81 0.33 88 1015.1
20260507003504 1 68 0.0 4.8 0.08 0.81 0.33 88 1015.1
20260507003004 1 103 3.2 14.5 0.08 0.81 0.33 88 1015.1
20260507002504 1 152 4.8 9.7 0.08 0.81 0.33 88 1015.2
20260507002004 2 273 3.2 19.3 0.05 0.79 0.33 88 1015.1
20260507001004 2 167 3.2 22.5 0.05 0.79 0.30 88 1015.0
20260507000504 2 262 3.2 9.7 0.05 0.79 0.30 88 1015.0
20260507000004 2 55 1.6 4.8 0.08 0.79 0.30 88 1014.9
20260506235503 2 285 3.2 12.9 0.08 0.76 0.28 88 1014.9
20260506235004 2 274 4.8 11.3 0.13 0.76 0.28 89 1015.0
20260506234004 1 182 1.6 19.3 0.18 0.76 0.28 89 1014.7
20260506233004 1 297 3.2 12.9 0.20 0.74 0.25 89 1014.7
20260506232504 1 131 1.6 4.8 0.23 0.74 0.25 90 1014.7
20260506232003 1 126 0.0 3.2 0.23 0.74 0.25 90 1014.7
20260506231504 1 66 0.0 1.6 0.23 0.74 0.25 89 1014.6
20260506230504 1 74 1.6 3.2 0.23 0.71 0.23 89 1014.7
20260506230004 1 348 3.2 4.8 0.23 0.71 0.23 89 1014.7
20260506225504 1 29 1.6 3.2 0.23 0.69 0.20 89 1014.8
20260506224504 1 171 1.6 4.8 0.18 0.61 0.15 88 1014.9
20260506223504 1 283 4.8 12.9 0.15 0.56 0.08 88 1014.9
20260506223004 1 287 4.8 14.5 0.13 0.53 0.05 88 1014.9
20260506222004 1 318 1.6 11.3 0.10 0.51 0.05 88 1014.7
20260506221004 1 70 1.6 8.0 0.08 0.51 0.03 87 1014.6
20260506220504 1 203 3.2 11.3 0.08 0.51 0.03 86 1014.7
20260506220004 1 127 4.8 11.3 0.05 0.48 0.00 85 1014.7
20260506215504 1 135 3.2 12.9 0.05 0.46 0.46 84 1014.7
20260506215004 2 238 1.6 8.0 0.05 0.46 0.46 83 1014.7
20260506214504 2 207 4.8 11.3 0.03 0.43 0.43 81 1014.8
20260506214003 2 257 6.4 29.0 0.03 0.43 0.43 79 1014.8
20260506213504 3 270 8.0 20.9 0.00 0.43 0.43 78 1014.6
20260506213004 3 264 6.4 16.1 0.00 0.43 0.43 77 1014.4
20260506212504 3 281 4.8 14.5 0.00 0.43 0.43 77 1014.3
20260506211504 3 142 0.0 8.0 0.00 0.43 0.43 77 1014.1
20260506211004 3 145 3.2 12.9 0.00 0.43 0.43 77 1014.1
20260506210503 3 168 3.2 12.9 0.00 0.43 0.43 77 1014.1
20260506210004 3 34 1.6 9.7 0.00 0.43 0.43 77 1014.2
20260506204504 3 15 1.6 3.2 0.00 0.43 0.43 78 1014.0
20260506204004 3 313 1.6 4.8 0.00 0.43 0.43 78 1014.1
20260506203004 3 193 0.0 9.7 0.00 0.43 0.43 77 1014.1
20260506202503 3 151 3.2 9.7 0.00 0.43 0.43 77 1014.2
20260506202003 3 159 1.6 4.8 0.00 0.43 0.43 77 1014.2
20260506201503 3 168 3.2 8.0 0.00 0.43 0.43 76 1014.2
20260506201004 3 153 1.6 4.8 0.00 0.43 0.43 76 1014.1
20260506200503 3 198 1.6 4.8 0.00 0.43 0.43 76 1014.1
20260506195504 3 178 1.6 11.3 0.00 0.43 0.43 76 1014.0
20260506193504 3 324 1.6 4.8 0.00 0.43 0.43 77 1014.1
20260506193004 3 281 3.2 9.7 0.00 0.43 0.43 77 1014.2
20260506192504 3 284 3.2 8.0 0.00 0.43 0.43 77 1014.2
20260506192004 3 252 1.6 4.8 0.00 0.43 0.43 77 1014.1
20260506191504 3 277 3.2 11.3 0.00 0.43 0.43 76 1014.0
20260506191004 3 310 3.2 11.3 0.00 0.43 0.43 76 1014.0
20260506190504 4 274 9.7 19.3 0.00 0.43 0.43 76 1013.9
20260506185503 4 264 4.8 9.7 0.00 0.43 0.43 76 1013.9
20260506185004 4 265 3.2 9.7 0.00 0.43 0.43 76 1013.7
20260506184504 5 257 4.8 12.9 0.00 0.43 0.43 75 1013.7
20260506184004 5 248 4.8 9.7 0.00 0.43 0.43 75 1013.8
20260506183003 5 278 6.4 14.5 0.00 0.43 0.43 73 1013.7
20260506182503 5 214 11.3 20.9 0.00 0.43 0.43 71 1013.9
20260506182004 5 257 4.8 12.9 0.00 0.43 0.43 71 1013.8
20260506181504 5 154 4.8 14.5 0.00 0.43 0.43 70 1013.8
20260506181003 5 286 3.2 12.9 0.00 0.43 0.43 70 1013.8
20260506180004 5 262 4.8 16.1 0.00 0.43 0.43 68 1013.7
20260506175503 5 208 4.8 16.1 0.00 0.43 0.43 66 1013.7
20260506175003 5 169 4.8 14.5 0.00 0.43 0.43 64 1013.7
20260506174504 5 242 4.8 19.3 0.00 0.43 0.43 63 1013.7
20260506174004 6 153 4.8 11.3 0.00 0.43 0.43 64 1013.5
20260506173003 6 254 1.6 14.5 0.00 0.43 0.43 63 1013.4
20260506172504 6 201 6.4 16.1 0.00 0.43 0.43 62 1013.5
20260506172003 6 262 8.0 19.3 0.00 0.43 0.43 63 1013.5
20260506171504 6 268 9.7 19.3 0.00 0.43 0.43 64 1013.5
20260506171004 6 223 8.0 20.9 0.00 0.43 0.43 63 1013.5
20260506170503 6 271 8.0 16.1 0.00 0.43 0.43 63 1013.5
20260506170004 6 289 8.0 19.3 0.00 0.43 0.43 64 1013.4
20260506165504 6 269 9.7 20.9 0.00 0.43 0.43 63 1013.6
20260506165004 6 268 4.8 19.3 0.00 0.43 0.43 64 1013.6
20260506164504 6 166 3.2 11.3 0.00 0.43 0.43 64 1013.5
20260506164004 6 223 3.2 14.5 0.00 0.43 0.43 63 1013.5
20260506163503 6 222 3.2 14.5 0.00 0.43 0.43 63 1013.5
20260506162504 6 217 6.4 14.5 0.00 0.43 0.43 61 1013.6
20260506162004 6 260 4.8 16.1 0.00 0.43 0.43 63 1013.6
20260506161504 6 150 6.4 19.3 0.00 0.43 0.43 62 1013.7
20260506160504 6 163 3.2 11.3 0.00 0.43 0.43 60 1013.6
20260506160004 7 236 4.8 16.1 0.00 0.43 0.43 59 1013.6
20260506155504 7 269 8.0 14.5 0.00 0.43 0.43 58 1013.7
20260506155003 7 170 8.0 19.3 0.00 0.43 0.43 57 1013.6
20260506154004 6 264 9.7 16.1 0.00 0.43 0.43 62 1013.8
20260506153504 6 176 3.2 11.3 0.00 0.43 0.43 64 1013.8
20260506153004 6 241 4.8 9.7 0.00 0.43 0.43 64 1013.6
20260506152504 6 217 6.4 14.5 0.00 0.43 0.43 62 1013.7
20260506151504 6 198 4.8 14.5 0.00 0.43 0.43 64 1013.7
20260506151004 6 210 4.8 12.9 0.00 0.43 0.43 64 1013.7
20260506150504 6 210 6.4 19.3 0.00 0.43 0.43 63 1013.8
20260506150004 6 268 6.4 20.9 0.00 0.43 0.43 65 1013.9
20260506145504 6 172 8.0 25.7 0.00 0.43 0.43 64 1013.9
20260506145003 6 265 6.4 19.3 0.00 0.43 0.43 62 1013.9
20260506144504 6 236 4.8 19.3 0.00 0.43 0.43 65 1013.8
20260506144003 7 257 4.8 20.9 0.00 0.43 0.43 65 1013.8
20260506143504 6 177 3.2 12.9 0.00 0.43 0.43 66 1013.6
20260506143004 6 223 4.8 16.1 0.00 0.43 0.43 68 1013.7
20260506142504 5 198 4.8 12.9 0.00 0.46 0.43 67 1013.7